| time (UTC) | temp F | wind direction | speed MPH | gust MPH | rain 1hr in | rain 24hr in | rain mn in | humidity % | barometer mb |
| 20260831055358 | 80 | 208 | 0.0 | 0.0 | 0.00 | 0.00 | 0.00 | 86 | 1016.9 |
| 20260831054853 | 81 | 213 | 0.0 | 0.0 | 0.00 | 0.00 | 0.00 | 85 | 1016.7 |
| 20260831054348 | 81 | 214 | 0.0 | 1.0 | 0.00 | 0.00 | 0.00 | 85 | 1016.7 |
| 20260831053847 | 81 | 218 | 0.0 | 1.0 | 0.00 | 0.00 | 0.00 | 84 | 1016.8 |
| 20260831053346 | 81 | 228 | 0.0 | 0.0 | 0.00 | 0.00 | 0.00 | 84 | 1016.8 |
| 20260831052846 | 81 | 217 | 0.0 | 0.0 | 0.00 | 0.00 | 0.00 | 84 | 1016.8 |
| 20260831052346 | 81 | 217 | 0.0 | 0.0 | 0.00 | 0.00 | 0.00 | 84 | 1016.8 |
| 20260831051844 | 81 | 217 | 0.0 | 0.0 | 0.00 | 0.00 | 0.00 | 83 | 1016.7 |
| 20260831051343 | 81 | 217 | 0.0 | 0.0 | 0.00 | 0.00 | 0.00 | 83 | 1016.6 |
| 20260831050838 | 81 | 218 | 0.0 | 0.0 | 0.00 | 0.00 | 0.00 | 82 | 1016.6 |
| 20260831050337 | 82 | 217 | 0.0 | 0.0 | 0.00 | 0.00 | 0.00 | 82 | 1016.6 |
| 20260831045832 | 82 | 228 | 0.0 | 0.0 | 0.00 | 0.00 | 0.00 | 81 | 1016.7 |
| 20260831045331 | 82 | 209 | 0.0 | 0.0 | 0.00 | 0.00 | 0.00 | 81 | 1016.8 |
| 20260831044827 | 82 | 218 | 0.0 | 0.0 | 0.00 | 0.00 | 0.00 | 81 | 1016.6 |
| 20260831044321 | 82 | 228 | 0.0 | 0.0 | 0.00 | 0.00 | 0.00 | 80 | 1016.7 |
| 20260831043818 | 82 | 210 | 0.0 | 0.0 | 0.00 | 0.00 | 0.00 | 80 | 1016.7 |
| 20260831043317 | 82 | 196 | 0.0 | 0.0 | 0.00 | 0.00 | 0.00 | 79 | 1016.6 |
| 20260831042812 | 83 | 222 | 1.0 | 1.0 | 0.00 | 0.00 | 0.00 | 79 | 1016.6 |
| 20260831042311 | 83 | 193 | 0.0 | 1.0 | 0.00 | 0.00 | 0.00 | 78 | 1016.4 |
| 20260831041807 | 83 | 195 | 1.0 | 2.0 | 0.00 | 0.00 | 0.00 | 78 | 1016.3 |
| 20260831041306 | 83 | 208 | 0.0 | 1.0 | 0.00 | 0.00 | 0.00 | 77 | 1016.3 |
| 20260831040801 | 83 | 214 | 1.0 | 2.0 | 0.00 | 0.00 | 0.00 | 77 | 1016.4 |
| 20260831040300 | 83 | 216 | 0.0 | 1.0 | 0.00 | 0.00 | 0.00 | 76 | 1016.4 |
| 20260831035759 | 84 | 214 | 0.0 | 1.0 | 0.00 | 0.00 | 0.00 | 76 | 1016.2 |
| 20260831035258 | 84 | 214 | 0.0 | 1.0 | 0.00 | 0.00 | 0.00 | 75 | 1016.2 |
| 20260831034758 | 84 | 201 | 1.0 | 1.0 | 0.00 | 0.00 | 0.00 | 75 | 1016.1 |
| 20260831034254 | 84 | 216 | 0.0 | 2.0 | 0.00 | 0.00 | 0.00 | 74 | 1016.2 |
| 20260831033749 | 84 | 236 | 1.0 | 2.0 | 0.00 | 0.00 | 0.00 | 74 | 1015.9 |
| 20260831033248 | 84 | 214 | 0.0 | 2.0 | 0.00 | 0.00 | 0.00 | 73 | 1016.0 |
| 20260831032744 | 84 | 129 | 1.0 | 4.0 | 0.00 | 0.00 | 0.00 | 73 | 1015.9 |
| 20260831032239 | 84 | 160 | 2.0 | 4.0 | 0.00 | 0.00 | 0.00 | 73 | 1016.0 |
| 20260831031734 | 85 | 198 | 0.0 | 2.0 | 0.00 | 0.00 | 0.00 | 72 | 1015.8 |
| 20260831031228 | 85 | 161 | 1.0 | 2.0 | 0.00 | 0.00 | 0.00 | 72 | 1016.0 |
| 20260831030728 | 85 | 194 | 0.0 | 2.0 | 0.00 | 0.00 | 0.00 | 72 | 1015.8 |
| 20260831030226 | 85 | 184 | 2.0 | 3.0 | 0.00 | 0.00 | 0.00 | 71 | 1015.7 |
| 20260831025725 | 85 | 210 | 0.0 | 2.0 | 0.00 | 0.00 | 0.00 | 70 | 1015.6 |
| 20260831025220 | 85 | 149 | 1.0 | 2.0 | 0.00 | 0.00 | 0.00 | 70 | 1015.5 |
| 20260831024717 | 85 | 174 | 0.0 | 2.0 | 0.00 | 0.00 | 0.00 | 69 | 1015.5 |
| 20260831024215 | 86 | 214 | 1.0 | 1.0 | 0.00 | 0.00 | 0.00 | 68 | 1015.4 |
| 20260831023714 | 86 | 200 | 0.0 | 1.0 | 0.00 | 0.00 | 0.00 | 67 | 1015.2 |
| 20260831023213 | 86 | 186 | 1.0 | 2.0 | 0.00 | 0.00 | 0.00 | 66 | 1015.1 |
| 20260831022708 | 86 | 225 | 0.0 | 0.0 | 0.00 | 0.00 | 0.00 | 65 | 1015.1 |
| 20260831022202 | 86 | 212 | 0.0 | 0.0 | 0.00 | 0.00 | 0.00 | 65 | 1015.0 |
| 20260831021702 | 87 | 219 | 0.0 | 0.0 | 0.00 | 0.00 | 0.00 | 64 | 1014.9 |
| 20260831021157 | 87 | 215 | 0.0 | 0.0 | 0.00 | 0.00 | 0.00 | 63 | 1015.0 |
| 20260831020653 | 87 | 211 | 0.0 | 0.0 | 0.00 | 0.00 | 0.00 | 62 | 1015.0 |
| 20260831020147 | 88 | 211 | 0.0 | 2.0 | 0.00 | 0.00 | 0.00 | 61 | 1014.9 |
| 20260831015643 | 88 | 189 | 2.0 | 2.0 | 0.00 | 0.00 | 0.00 | 61 | 1014.9 |
| 20260831015142 | 88 | 222 | 1.0 | 3.0 | 0.00 | 0.00 | 0.00 | 60 | 1014.8 |
| 20260831014637 | 88 | 218 | 0.0 | 2.0 | 0.00 | 0.00 | 0.00 | 59 | 1014.7 |
| 20260831014133 | 89 | 213 | 0.0 | 1.0 | 0.00 | 0.00 | 0.00 | 57 | 1014.7 |
| 20260831013629 | 89 | 210 | 0.0 | 0.0 | 0.00 | 0.00 | 0.00 | 55 | 1014.7 |
| 20260831013129 | 89 | 210 | 0.0 | 1.0 | 0.00 | 0.00 | 0.00 | 55 | 1014.8 |
| 20260831012623 | 90 | 204 | 0.0 | 2.0 | 0.00 | 0.00 | 0.00 | 54 | 1014.7 |
| 20260831012119 | 90 | 201 | 0.0 | 1.0 | 0.00 | 0.00 | 0.00 | 53 | 1014.6 |
| 20260831011618 | 90 | 205 | 0.0 | 2.0 | 0.00 | 0.00 | 0.00 | 52 | 1014.4 |
| 20260831011114 | 91 | 209 | 0.0 | 0.0 | 0.00 | 0.00 | 0.00 | 52 | 1014.6 |
| 20260831010610 | 91 | 214 | 0.0 | 2.0 | 0.00 | 0.00 | 0.00 | 52 | 1014.4 |
| 20260831010105 | 91 | 216 | 0.0 | 2.0 | 0.00 | 0.00 | 0.00 | 51 | 1014.3 |
| 20260831005559 | 91 | 214 | 1.0 | 3.0 | 0.00 | 0.00 | 0.00 | 51 | 1014.5 |
| 20260831005054 | 92 | 189 | 1.0 | 3.0 | 0.00 | 0.00 | 0.00 | 51 | 1014.3 |
| 20260831004550 | 92 | 218 | 0.0 | 3.0 | 0.00 | 0.00 | 0.00 | 52 | 1014.5 |
| 20260831004046 | 92 | 3 | 1.0 | 4.0 | 0.00 | 0.00 | 0.00 | 51 | 1014.3 |
| 20260831003542 | 92 | 222 | 1.0 | 6.0 | 0.00 | 0.00 | 0.00 | 52 | 1014.3 |
| 20260831003037 | 93 | 205 | 2.0 | 2.0 | 0.00 | 0.00 | 0.00 | 52 | 1014.1 |
| 20260831002536 | 93 | 205 | 2.0 | 3.0 | 0.00 | 0.00 | 0.00 | 51 | 1014.1 |
| 20260831002031 | 93 | 212 | 1.0 | 4.0 | 0.00 | 0.00 | 0.00 | 50 | 1014.2 |
| 20260831001527 | 94 | 188 | 2.0 | 3.0 | 0.00 | 0.00 | 0.00 | 49 | 1014.1 |
| 20260831001023 | 94 | 217 | 2.0 | 7.0 | 0.00 | 0.00 | 0.00 | 49 | 1014.1 |
| 20260831000520 | 94 | 201 | 1.0 | 3.0 | 0.00 | 0.00 | 0.00 | 49 | 1014.1 |
| 20260831000018 | 94 | 173 | 1.0 | 2.0 | 0.00 | 0.00 | 0.00 | 49 | 1014.2 |
| 20260830235517 | 95 | 226 | 2.0 | 4.0 | 0.00 | 0.00 | 0.00 | 49 | 1014.2 |
| 20260830235012 | 95 | 217 | 1.0 | 4.0 | 0.00 | 0.00 | 0.00 | 48 | 1014.2 |
| 20260830234508 | 96 | 190 | 2.0 | 4.0 | 0.00 | 0.00 | 0.00 | 46 | 1014.1 |
| 20260830234003 | 96 | 209 | 0.0 | 3.0 | 0.00 | 0.00 | 0.00 | 43 | 1014.2 |
| 20260830233458 | 97 | 175 | 2.0 | 6.0 | 0.00 | 0.00 | 0.00 | 42 | 1014.2 |
| 20260830232949 | 98 | 216 | 1.0 | 1.0 | 0.00 | 0.00 | 0.00 | 42 | 1014.1 |
| 20260830232444 | 97 | 184 | 0.0 | 1.0 | 0.00 | 0.00 | 0.00 | 42 | 1014.1 |
| 20260830231940 | 97 | 166 | 6.0 | 8.0 | 0.00 | 0.00 | 0.00 | 43 | 1014.1 |
| 20260830231435 | 97 | 212 | 0.0 | 4.0 | 0.00 | 0.00 | 0.00 | 43 | 1014.0 |
| 20260830230934 | 97 | 204 | 0.0 | 1.0 | 0.00 | 0.00 | 0.00 | 43 | 1014.1 |
| 20260830230430 | 97 | 194 | 1.0 | 2.0 | 0.00 | 0.00 | 0.00 | 44 | 1014.1 |
| 20260830225924 | 97 | 207 | 1.0 | 4.0 | 0.00 | 0.00 | 0.00 | 44 | 1014.1 |
| 20260830225420 | 97 | 223 | 1.0 | 6.0 | 0.00 | 0.00 | 0.00 | 43 | 1014.3 |
| 20260830224919 | 97 | 221 | 2.0 | 3.0 | 0.00 | 0.00 | 0.00 | 43 | 1014.2 |
| 20260830224418 | 97 | 154 | 2.0 | 3.0 | 0.00 | 0.00 | 0.00 | 43 | 1014.3 |
| 20260830223915 | 98 | 195 | 2.0 | 3.0 | 0.00 | 0.00 | 0.00 | 43 | 1014.4 |
| 20260830223412 | 97 | 200 | 2.0 | 3.0 | 0.00 | 0.00 | 0.00 | 43 | 1014.3 |
| 20260830222910 | 97 | 221 | 1.0 | 3.0 | 0.00 | 0.00 | 0.00 | 44 | 1014.3 |
| 20260830222406 | 98 | 240 | 3.0 | 6.0 | 0.00 | 0.00 | 0.00 | 45 | 1014.3 |
| 20260830221901 | 98 | 213 | 1.0 | 6.0 | 0.00 | 0.00 | 0.00 | 45 | 1014.4 |
| 20260830221358 | 98 | 190 | 1.0 | 2.0 | 0.00 | 0.00 | 0.00 | 45 | 1014.2 |
| 20260830220854 | 97 | 223 | 0.0 | 3.0 | 0.00 | 0.00 | 0.00 | 45 | 1014.4 |
| 20260830220353 | 97 | 207 | 0.0 | 6.0 | 0.00 | 0.00 | 0.00 | 46 | 1014.2 |
| 20260830215851 | 96 | 227 | 2.0 | 3.0 | 0.00 | 0.00 | 0.00 | 45 | 1014.3 |
| 20260830215350 | 97 | 223 | 1.0 | 3.0 | 0.00 | 0.00 | 0.00 | 45 | 1014.5 |
| 20260830214845 | 98 | 244 | 1.0 | 4.0 | 0.00 | 0.00 | 0.00 | 45 | 1014.3 |
| 20260830214341 | 99 | 201 | 0.0 | 3.0 | 0.00 | 0.00 | 0.00 | 44 | 1014.3 |
| 20260830213840 | 98 | 247 | 0.0 | 2.0 | 0.00 | 0.00 | 0.00 | 45 | 1014.5 |
| 20260830213336 | 97 | 225 | 0.0 | 1.0 | 0.00 | 0.00 | 0.00 | 46 | 1014.6 |
| 20260830212831 | 98 | 220 | 1.0 | 3.0 | 0.00 | 0.00 | 0.00 | 46 | 1014.8 |
| 20260830212327 | 99 | 230 | 1.0 | 3.0 | 0.00 | 0.00 | 0.00 | 44 | 1014.7 |
| 20260830211825 | 99 | 221 | 0.0 | 3.0 | 0.00 | 0.00 | 0.00 | 46 | 1014.7 |
| 20260830211321 | 99 | 217 | 0.0 | 4.0 | 0.00 | 0.00 | 0.00 | 46 | 1015.0 |
| 20260830210816 | 99 | 255 | 1.0 | 3.0 | 0.00 | 0.00 | 0.00 | 45 | 1014.8 |
| 20260830210315 | 99 | 230 | 2.0 | 4.0 | 0.00 | 0.00 | 0.00 | 45 | 1015.0 |
| 20260830205814 | 98 | 229 | 3.0 | 6.0 | 0.00 | 0.00 | 0.00 | 46 | 1015.0 |
| 20260830205308 | 98 | 71 | 2.0 | 3.0 | 0.00 | 0.00 | 0.00 | 47 | 1015.2 |
| 20260830204804 | 96 | 217 | 3.0 | 6.0 | 0.00 | 0.00 | 0.00 | 48 | 1015.2 |
| 20260830204302 | 96 | 177 | 0.0 | 3.0 | 0.00 | 0.00 | 0.00 | 48 | 1015.3 |
| 20260830203758 | 96 | 229 | 4.0 | 4.0 | 0.00 | 0.00 | 0.00 | 47 | 1015.3 |
| 20260830203254 | 97 | 187 | 1.0 | 2.0 | 0.00 | 0.00 | 0.00 | 46 | 1015.3 |
| 20260830202753 | 96 | 248 | 1.0 | 2.0 | 0.00 | 0.00 | 0.00 | 48 | 1015.4 |
| 20260830202249 | 98 | 217 | 1.0 | 3.0 | 0.00 | 0.00 | 0.00 | 47 | 1015.6 |
| 20260830201748 | 97 | 187 | 2.0 | 4.0 | 0.00 | 0.00 | 0.00 | 47 | 1015.7 |
| 20260830201243 | 96 | 220 | 1.0 | 2.0 | 0.00 | 0.00 | 0.00 | 49 | 1015.7 |
| 20260830200739 | 98 | 216 | 1.0 | 4.0 | 0.00 | 0.00 | 0.00 | 47 | 1015.8 |
| 20260830200238 | 98 | 251 | 2.0 | 4.0 | 0.00 | 0.00 | 0.00 | 49 | 1015.9 |
| 20260830195734 | 97 | 104 | 1.0 | 3.0 | 0.00 | 0.00 | 0.00 | 47 | 1015.8 |
| 20260830195232 | 98 | 213 | 0.0 | 7.0 | 0.00 | 0.00 | 0.00 | 49 | 1016.2 |
| 20260830194731 | 98 | 198 | 2.0 | 3.0 | 0.00 | 0.00 | 0.00 | 49 | 1016.3 |
| 20260830194226 | 99 | 233 | 1.0 | 2.0 | 0.00 | 0.00 | 0.00 | 48 | 1016.3 |
| 20260830193725 | 98 | 227 | 1.0 | 3.0 | 0.00 | 0.00 | 0.00 | 48 | 1016.4 |
| 20260830193220 | 97 | 208 | 1.0 | 2.0 | 0.00 | 0.00 | 0.00 | 51 | 1016.5 |
| 20260830192715 | 96 | 215 | 1.0 | 4.0 | 0.00 | 0.00 | 0.00 | 49 | 1016.7 |
| 20260830192210 | 95 | 165 | 1.0 | 4.0 | 0.00 | 0.00 | 0.00 | 51 | 1016.7 |
| 20260830191707 | 96 | 229 | 2.0 | 4.0 | 0.00 | 0.00 | 0.00 | 50 | 1016.6 |
| 20260830191206 | 97 | 114 | 1.0 | 4.0 | 0.00 | 0.00 | 0.00 | 50 | 1016.8 |
| 20260830190702 | 96 | 242 | 2.0 | 6.0 | 0.00 | 0.00 | 0.00 | 52 | 1016.9 |
| 20260830190157 | 96 | 223 | 4.0 | 6.0 | 0.00 | 0.00 | 0.00 | 52 | 1016.9 |
| 20260830185655 | 95 | 159 | 1.0 | 3.0 | 0.00 | 0.00 | 0.00 | 53 | 1016.8 |
| 20260830185151 | 94 | 354 | 4.0 | 6.0 | 0.00 | 0.00 | 0.00 | 53 | 1017.0 |
| 20260830184650 | 95 | 262 | 3.0 | 6.0 | 0.00 | 0.00 | 0.00 | 52 | 1017.1 |
| 20260830184150 | 96 | 251 | 0.0 | 2.0 | 0.00 | 0.00 | 0.00 | 52 | 1017.1 |
| 20260830183645 | 96 | 215 | 1.0 | 3.0 | 0.00 | 0.00 | 0.00 | 53 | 1017.1 |
| 20260830183141 | 95 | 225 | 2.0 | 3.0 | 0.00 | 0.00 | 0.00 | 54 | 1017.4 |
| 20260830182635 | 96 | 212 | 3.0 | 4.0 | 0.00 | 0.00 | 0.00 | 53 | 1017.6 |
| 20260830182131 | 95 | 213 | 0.0 | 4.0 | 0.00 | 0.00 | 0.00 | 53 | 1017.5 |
| 20260830181627 | 94 | 223 | 0.0 | 4.0 | 0.00 | 0.00 | 0.00 | 55 | 1017.8 |
| 20260830181127 | 95 | 156 | 4.0 | 6.0 | 0.00 | 0.00 | 0.00 | 54 | 1017.8 |
| 20260830180626 | 95 | 216 | 0.0 | 3.0 | 0.00 | 0.00 | 0.00 | 57 | 1017.7 |
| 20260830180126 | 94 | 225 | 2.0 | 3.0 | 0.00 | 0.00 | 0.00 | 56 | 1017.9 |
| 20260830175625 | 94 | 191 | 1.0 | 8.0 | 0.00 | 0.00 | 0.00 | 57 | 1017.9 |
| 20260830175120 | 94 | 223 | 0.0 | 1.0 | 0.00 | 0.00 | 0.00 | 58 | 1017.8 |
| 20260830174616 | 93 | 260 | 0.0 | 2.0 | 0.00 | 0.00 | 0.00 | 60 | 1018.0 |
| 20260830174111 | 93 | 236 | 0.0 | 4.0 | 0.00 | 0.00 | 0.00 | 61 | 1018.1 |
| 20260830173606 | 93 | 228 | 2.0 | 3.0 | 0.00 | 0.00 | 0.00 | 59 | 1018.4 |
| 20260830173101 | 92 | 304 | 3.0 | 4.0 | 0.00 | 0.00 | 0.00 | 60 | 1018.4 |
| 20260830172558 | 93 | 233 | 2.0 | 4.0 | 0.00 | 0.00 | 0.00 | 60 | 1018.3 |
| 20260830172054 | 93 | 261 | 2.0 | 3.0 | 0.00 | 0.00 | 0.00 | 58 | 1018.4 |
| 20260830171549 | 94 | 251 | 2.0 | 3.0 | 0.00 | 0.00 | 0.00 | 59 | 1018.4 |
| 20260830171044 | 93 | 205 | 1.0 | 2.0 | 0.00 | 0.00 | 0.00 | 59 | 1018.4 |
| 20260830170544 | 92 | 189 | 1.0 | 4.0 | 0.00 | 0.00 | 0.00 | 58 | 1018.4 |
| 20260830170043 | 92 | 192 | 0.0 | 4.0 | 0.00 | 0.00 | 0.00 | 62 | 1018.3 |
| 20260830165538 | 92 | 219 | 0.0 | 4.0 | 0.00 | 0.00 | 0.00 | 64 | 1018.5 |
| 20260830165034 | 92 | 225 | 1.0 | 4.0 | 0.00 | 0.00 | 0.00 | 64 | 1018.5 |
| 20260830164530 | 93 | 163 | 3.0 | 4.0 | 0.00 | 0.00 | 0.00 | 60 | 1018.6 |
| 20260830164026 | 91 | 206 | 4.0 | 7.0 | 0.00 | 0.00 | 0.00 | 62 | 1018.5 |
| 20260830163523 | 92 | 263 | 4.0 | 4.0 | 0.00 | 0.00 | 0.00 | 63 | 1018.5 |
| 20260830163022 | 92 | 209 | 0.0 | 3.0 | 0.00 | 0.00 | 0.00 | 66 | 1018.6 |
| 20260830162518 | 91 | 213 | 1.0 | 3.0 | 0.00 | 0.00 | 0.00 | 67 | 1018.6 |
| 20260830162018 | 90 | 272 | 2.0 | 4.0 | 0.00 | 0.00 | 0.00 | 68 | 1018.5 |
| 20260830161513 | 89 | 230 | 2.0 | 3.0 | 0.00 | 0.00 | 0.00 | 70 | 1018.6 |
| 20260830161008 | 88 | 215 | 1.0 | 3.0 | 0.00 | 0.00 | 0.00 | 73 | 1018.7 |
| 20260830160504 | 89 | 233 | 2.0 | 3.0 | 0.00 | 0.00 | 0.00 | 71 | 1018.7 |
| 20260830155958 | 89 | 217 | 0.0 | 3.0 | 0.00 | 0.00 | 0.00 | 72 | 1018.5 |
| 20260830155455 | 89 | 222 | 1.0 | 3.0 | 0.00 | 0.00 | 0.00 | 72 | 1018.7 |
| 20260830154950 | 89 | 225 | 3.0 | 4.0 | 0.00 | 0.00 | 0.00 | 70 | 1018.5 |
| 20260830154445 | 90 | 220 | 1.0 | 2.0 | 0.00 | 0.00 | 0.00 | 71 | 1018.7 |
| 20260830153941 | 89 | 255 | 0.0 | 2.0 | 0.00 | 0.00 | 0.00 | 72 | 1018.7 |
| 20260830153437 | 89 | 217 | 2.0 | 2.0 | 0.00 | 0.00 | 0.00 | 72 | 1018.8 |
| 20260830152936 | 89 | 214 | 0.0 | 3.0 | 0.00 | 0.00 | 0.00 | 73 | 1018.5 |
| 20260830152432 | 89 | 222 | 3.0 | 3.0 | 0.00 | 0.00 | 0.00 | 71 | 1018.7 |
| 20260830151931 | 88 | 225 | 1.0 | 2.0 | 0.00 | 0.00 | 0.00 | 75 | 1018.3 |
| 20260830151431 | 88 | 222 | 1.0 | 2.0 | 0.00 | 0.00 | 0.00 | 76 | 1018.3 |
| 20260830150926 | 88 | 235 | 0.0 | 1.0 | 0.00 | 0.00 | 0.00 | 76 | 1018.3 |
| 20260830150426 | 87 | 247 | 3.0 | 6.0 | 0.00 | 0.00 | 0.00 | 76 | 1018.6 |
| 20260830145920 | 86 | 218 | 0.0 | 7.0 | 0.00 | 0.00 | 0.00 | 80 | 1018.5 |
| 20260830145415 | 86 | 232 | 1.0 | 2.0 | 0.00 | 0.00 | 0.00 | 80 | 1018.5 |
| 20260830144910 | 85 | 209 | 0.0 | 2.0 | 0.00 | 0.00 | 0.00 | 82 | 1018.6 |
| 20260830144407 | 85 | 244 | 2.0 | 3.0 | 0.00 | 0.00 | 0.00 | 82 | 1018.6 |
| 20260830143906 | 85 | 231 | 1.0 | 3.0 | 0.00 | 0.00 | 0.00 | 82 | 1018.4 |
| 20260830143401 | 85 | 231 | 1.0 | 2.0 | 0.00 | 0.00 | 0.00 | 82 | 1018.5 |
| 20260830142900 | 85 | 198 | 1.0 | 2.0 | 0.00 | 0.00 | 0.00 | 83 | 1018.6 |
| 20260830142356 | 85 | 243 | 0.0 | 1.0 | 0.00 | 0.00 | 0.00 | 84 | 1018.5 |
| 20260830141851 | 84 | 224 | 0.0 | 1.0 | 0.00 | 0.00 | 0.00 | 86 | 1018.7 |
| 20260830141346 | 83 | 224 | 2.0 | 3.0 | 0.00 | 0.00 | 0.00 | 87 | 1018.4 |
| 20260830140841 | 83 | 210 | 1.0 | 2.0 | 0.00 | 0.00 | 0.00 | 88 | 1018.4 |
| 20260830140336 | 83 | 208 | 0.0 | 2.0 | 0.00 | 0.00 | 0.00 | 88 | 1018.4 |
| 20260830135830 | 82 | 214 | 0.0 | 1.0 | 0.00 | 0.00 | 0.00 | 89 | 1018.3 |
| 20260830135326 | 82 | 215 | 0.0 | 0.0 | 0.00 | 0.00 | 0.00 | 90 | 1018.6 |
| 20260830134821 | 81 | 205 | 1.0 | 2.0 | 0.00 | 0.00 | 0.00 | 92 | 1018.5 |
| 20260830134321 | 80 | 89 | 0.0 | 0.0 | 0.00 | 0.00 | 0.00 | 95 | 1018.4 |
| 20260830133818 | 78 | 89 | 0.0 | 0.0 | 0.00 | 0.00 | 0.00 | 98 | 1018.4 |
| 20260830133313 | 78 | 86 | 0.0 | 0.0 | 0.00 | 0.00 | 0.00 | 99 | 1018.4 |
| 20260830132808 | 77 | 86 | 0.0 | 0.0 | 0.00 | 0.00 | 0.00 | 99 | 1018.4 |
| 20260830132305 | 77 | 74 | 0.0 | 0.0 | 0.00 | 0.00 | 0.00 | 99 | 1018.5 |
| 20260830131803 | 77 | 74 | 0.0 | 0.0 | 0.00 | 0.00 | 0.00 | 99 | 1018.2 |
| 20260830131258 | 77 | 74 | 0.0 | 0.0 | 0.00 | 0.00 | 0.00 | 99 | 1018.2 |
| 20260830130753 | 76 | 213 | 0.0 | 0.0 | 0.00 | 0.00 | 0.00 | 99 | 1018.1 |
| 20260830130248 | 76 | 213 | 0.0 | 0.0 | 0.00 | 0.00 | 0.00 | 99 | 1018.0 |
| 20260830125747 | 76 | 213 | 0.0 | 0.0 | 0.00 | 0.00 | 0.00 | 99 | 1018.2 |
| 20260830125243 | 75 | 213 | 0.0 | 0.0 | 0.00 | 0.00 | 0.00 | 99 | 1018.1 |
| 20260830124740 | 75 | 213 | 0.0 | 0.0 | 0.00 | 0.00 | 0.00 | 99 | 1018.0 |
| 20260830124235 | 75 | 213 | 0.0 | 0.0 | 0.00 | 0.00 | 0.00 | 99 | 1018.0 |
| 20260830123732 | 75 | 213 | 0.0 | 0.0 | 0.00 | 0.00 | 0.00 | 99 | 1017.9 |
| 20260830123229 | 75 | 213 | 0.0 | 0.0 | 0.00 | 0.00 | 0.00 | 99 | 1017.9 |
| 20260830122726 | 75 | 213 | 0.0 | 0.0 | 0.00 | 0.00 | 0.00 | 99 | 1017.8 |
| 20260830122220 | 74 | 213 | 0.0 | 0.0 | 0.00 | 0.00 | 0.00 | 99 | 1017.8 |
| 20260830121716 | 74 | 214 | 0.0 | 0.0 | 0.00 | 0.00 | 0.00 | 99 | 1017.9 |
| 20260830121215 | 74 | 214 | 0.0 | 0.0 | 0.00 | 0.00 | 0.00 | 99 | 1018.0 |
| 20260830120715 | 74 | 214 | 0.0 | 0.0 | 0.00 | 0.00 | 0.00 | 99 | 1017.8 |
| 20260830120212 | 74 | 214 | 0.0 | 0.0 | 0.00 | 0.00 | 0.00 | 99 | 1017.8 |
| 20260830115708 | 75 | 214 | 0.0 | 0.0 | 0.00 | 0.00 | 0.00 | 99 | 1017.7 |
| 20260830115203 | 75 | 214 | 0.0 | 0.0 | 0.00 | 0.00 | 0.00 | 99 | 1017.7 |
| 20260830114700 | 75 | 214 | 0.0 | 0.0 | 0.00 | 0.00 | 0.00 | 99 | 1017.7 |
| 20260830114159 | 74 | 214 | 0.0 | 0.0 | 0.00 | 0.00 | 0.00 | 99 | 1017.6 |
| 20260830113655 | 74 | 214 | 0.0 | 0.0 | 0.00 | 0.00 | 0.00 | 99 | 1017.8 |
| 20260830113150 | 75 | 214 | 0.0 | 0.0 | 0.00 | 0.00 | 0.00 | 99 | 1017.8 |
| 20260830112646 | 74 | 214 | 0.0 | 0.0 | 0.00 | 0.00 | 0.00 | 99 | 1017.6 |
| 20260830112142 | 74 | 214 | 0.0 | 0.0 | 0.00 | 0.00 | 0.00 | 99 | 1017.4 |
| 20260830111638 | 75 | 214 | 0.0 | 0.0 | 0.00 | 0.00 | 0.00 | 99 | 1017.6 |
| 20260830111133 | 75 | 214 | 0.0 | 0.0 | 0.00 | 0.00 | 0.00 | 99 | 1017.5 |
| 20260830110627 | 74 | 214 | 0.0 | 0.0 | 0.00 | 0.00 | 0.00 | 99 | 1017.4 |
| 20260830110124 | 75 | 214 | 0.0 | 0.0 | 0.00 | 0.00 | 0.00 | 99 | 1017.2 |
| 20260830105618 | 75 | 214 | 0.0 | 0.0 | 0.00 | 0.00 | 0.00 | 99 | 1017.4 |
| 20260830105114 | 75 | 214 | 0.0 | 0.0 | 0.00 | 0.00 | 0.00 | 99 | 1017.4 |
| 20260830104611 | 75 | 214 | 0.0 | 0.0 | 0.00 | 0.00 | 0.00 | 99 | 1017.2 |
| 20260830104107 | 75 | 214 | 0.0 | 0.0 | 0.00 | 0.00 | 0.00 | 99 | 1017.1 |
| 20260830103606 | 75 | 214 | 0.0 | 0.0 | 0.00 | 0.00 | 0.00 | 99 | 1017.1 |
| 20260830103101 | 75 | 214 | 0.0 | 0.0 | 0.00 | 0.00 | 0.00 | 99 | 1017.1 |
| 20260830102600 | 75 | 214 | 0.0 | 0.0 | 0.00 | 0.00 | 0.00 | 98 | 1016.9 |
| 20260830102056 | 75 | 214 | 0.0 | 0.0 | 0.00 | 0.00 | 0.00 | 98 | 1017.2 |
| 20260830101552 | 75 | 214 | 0.0 | 0.0 | 0.00 | 0.00 | 0.00 | 98 | 1017.3 |
| 20260830101046 | 75 | 214 | 0.0 | 0.0 | 0.00 | 0.00 | 0.00 | 98 | 1017.0 |
| 20260830100545 | 76 | 214 | 0.0 | 0.0 | 0.00 | 0.00 | 0.00 | 98 | 1017.1 |
| 20260830100044 | 76 | 214 | 0.0 | 0.0 | 0.00 | 0.00 | 0.00 | 98 | 1016.8 |
| 20260830095539 | 76 | 214 | 0.0 | 0.0 | 0.00 | 0.00 | 0.00 | 98 | 1016.8 |
| 20260830095036 | 76 | 214 | 0.0 | 0.0 | 0.00 | 0.00 | 0.00 | 98 | 1017.0 |
| 20260830094532 | 76 | 214 | 0.0 | 0.0 | 0.00 | 0.00 | 0.00 | 97 | 1017.0 |
| 20260830094026 | 76 | 214 | 0.0 | 0.0 | 0.00 | 0.00 | 0.00 | 97 | 1017.0 |
| 20260830093521 | 76 | 214 | 0.0 | 0.0 | 0.00 | 0.00 | 0.00 | 97 | 1017.0 |
| 20260830093019 | 76 | 214 | 0.0 | 0.0 | 0.00 | 0.00 | 0.00 | 97 | 1016.9 |
| 20260830092512 | 76 | 214 | 0.0 | 0.0 | 0.00 | 0.00 | 0.00 | 97 | 1016.9 |
| 20260830092009 | 77 | 214 | 0.0 | 0.0 | 0.00 | 0.00 | 0.00 | 97 | 1016.8 |
| 20260830091504 | 77 | 214 | 0.0 | 0.0 | 0.00 | 0.00 | 0.00 | 97 | 1016.8 |
| 20260830091003 | 77 | 213 | 0.0 | 0.0 | 0.00 | 0.00 | 0.00 | 97 | 1016.9 |
| 20260830090459 | 77 | 213 | 0.0 | 0.0 | 0.00 | 0.00 | 0.00 | 97 | 1016.8 |
| 20260830085954 | 77 | 213 | 0.0 | 0.0 | 0.00 | 0.00 | 0.00 | 97 | 1016.8 |
| 20260830085453 | 77 | 213 | 0.0 | 0.0 | 0.00 | 0.00 | 0.00 | 96 | 1016.8 |
| 20260830084949 | 77 | 213 | 0.0 | 0.0 | 0.00 | 0.00 | 0.00 | 96 | 1016.8 |
| 20260830084444 | 77 | 213 | 0.0 | 0.0 | 0.00 | 0.00 | 0.00 | 96 | 1017.1 |
| 20260830083939 | 77 | 213 | 0.0 | 0.0 | 0.00 | 0.00 | 0.00 | 96 | 1017.0 |
| 20260830083435 | 77 | 213 | 0.0 | 0.0 | 0.00 | 0.00 | 0.00 | 96 | 1016.9 |
| 20260830082934 | 77 | 213 | 0.0 | 0.0 | 0.00 | 0.00 | 0.00 | 96 | 1016.9 |
| 20260830082430 | 77 | 213 | 0.0 | 0.0 | 0.00 | 0.00 | 0.00 | 96 | 1017.0 |
| 20260830081924 | 77 | 213 | 0.0 | 0.0 | 0.00 | 0.00 | 0.00 | 95 | 1017.1 |
| 20260830081420 | 77 | 213 | 0.0 | 0.0 | 0.00 | 0.00 | 0.00 | 95 | 1017.0 |
| 20260830080919 | 78 | 213 | 0.0 | 0.0 | 0.00 | 0.00 | 0.00 | 95 | 1017.2 |
| 20260830080416 | 78 | 213 | 0.0 | 0.0 | 0.00 | 0.00 | 0.00 | 95 | 1017.1 |
| 20260830075914 | 78 | 213 | 0.0 | 0.0 | 0.00 | 0.00 | 0.00 | 95 | 1016.9 |
| 20260830075410 | 78 | 212 | 0.0 | 0.0 | 0.00 | 0.00 | 0.00 | 94 | 1017.0 |
| 20260830074905 | 78 | 213 | 0.0 | 0.0 | 0.00 | 0.00 | 0.00 | 94 | 1017.2 |
| 20260830074401 | 78 | 214 | 0.0 | 0.0 | 0.00 | 0.00 | 0.00 | 94 | 1017.0 |
| 20260830073857 | 78 | 214 | 0.0 | 0.0 | 0.00 | 0.00 | 0.00 | 94 | 1017.1 |
| 20260830073352 | 78 | 214 | 0.0 | 0.0 | 0.00 | 0.00 | 0.00 | 93 | 1017.3 |
| 20260830072847 | 78 | 215 | 0.0 | 0.0 | 0.00 | 0.00 | 0.00 | 93 | 1017.3 |
| 20260830072343 | 78 | 215 | 0.0 | 0.0 | 0.00 | 0.00 | 0.00 | 93 | 1017.4 |
| 20260830071837 | 78 | 215 | 0.0 | 1.0 | 0.00 | 0.00 | 0.00 | 93 | 1017.3 |
| 20260830071337 | 78 | 214 | 0.0 | 1.0 | 0.00 | 0.00 | 0.00 | 93 | 1017.3 |
| 20260830070836 | 79 | 215 | 0.0 | 0.0 | 0.00 | 0.00 | 0.00 | 92 | 1017.2 |
| 20260830070331 | 79 | 215 | 0.0 | 0.0 | 0.00 | 0.00 | 0.00 | 92 | 1017.1 |
| 20260830065829 | 79 | 215 | 0.0 | 0.0 | 0.00 | 0.00 | 0.00 | 92 | 1017.2 |
| 20260830065324 | 79 | 215 | 0.0 | 0.0 | 0.00 | 0.00 | 0.00 | 91 | 1017.2 |
| 20260830064823 | 79 | 215 | 0.0 | 0.0 | 0.00 | 0.00 | 0.00 | 91 | 1017.1 |
| 20260830064319 | 79 | 213 | 1.0 | 1.0 | 0.00 | 0.00 | 0.00 | 91 | 1017.3 |
| 20260830063818 | 79 | 221 | 0.0 | 1.0 | 0.00 | 0.00 | 0.00 | 90 | 1017.2 |
| 20260830063313 | 80 | 217 | 1.0 | 1.0 | 0.00 | 0.00 | 0.00 | 89 | 1017.2 |
| 20260830062808 | 80 | 209 | 0.0 | 1.0 | 0.00 | 0.00 | 0.00 | 89 | 1017.3 |
| 20260830062307 | 80 | 218 | 0.0 | 1.0 | 0.00 | 0.00 | 0.00 | 89 | 1017.1 |
| 20260830061802 | 80 | 213 | 0.0 | 2.0 | 0.00 | 0.00 | 0.00 | 89 | 1017.3 |
| 20260830061257 | 80 | 210 | 0.0 | 1.0 | 0.00 | 0.00 | 0.00 | 89 | 1017.2 |
| 20260830060754 | 80 | 209 | 0.0 | 1.0 | 0.00 | 0.00 | 0.00 | 88 | 1017.4 |
| 20260830060251 | 80 | 217 | 0.0 | 1.0 | 0.00 | 0.00 | 0.00 | 88 | 1017.3 |
| 20260830055745 | 80 | 209 | 0.0 | 0.0 | 0.00 | 0.00 | 0.00 | 88 | 1017.2 |